Regional Weather Roundup
Issued by NWS

Home | Current Version | Previous Version | Graphics & Text | Print | Product List | Glossary Off
Versions: 1 2 3 4 5 6 7 8 9 10 11 12 13 14 15 16 17 18 19 20 21 22 23 24 25 26 27 28 29 30 31 32 33 34 35 36 37 38 39 40 41 42 43 44 45 46 47 48 49 50

000
ASUS43 KDMX 230706
RWRIA

WEATHER ROUNDUP FOR IOWA
NATIONAL WEATHER SERVICE DES MOINES IA
200 AM CDT SUN JUL 23 2017

NOTE: "FAIR" INDICATES FEW OR NO CLOUDS BELOW 12,000 FEET WITH NO
SIGNIFICANT WEATHER AND/OR OBSTRUCTIONS TO VISIBILITY.

* - THESE STATIONS ARE NOT NWS STATIONS...THUS NOT UNDER NWS
QUALITY CONTROL.  THEY ALSO DO NOT REPORT WEATHER SUCH
AS PRECIPITATION OR FOG.

IAZ001>003-012>014-020>022-031>034-043>046-230800-
   NORTHWEST IOWA

CITY           SKY/WX    TMP DP  RH WIND       PRES   REMARKS
CARROLL *      CLEAR     70  70 100 W5        29.91S FOG
CHEROKEE *     FOG       66  66 100 CALM      29.90F VSB 1/2
DENISON *      FOG       72  72 100 SW5       29.95R VSB<1/4
ORANGE CITY *  CLEAR     70  70 100 NW5       29.92S FOG
SHELDON *      CLEAR     63  63 100 W5        29.90F
SIOUX CITY     CLEAR     67  67 100 CALM      29.92S FOG
SPENCER        CLEAR     63  62  97 NW5       29.90F
STORM LAKE *   FOG       70  68  94 W8        29.91F VSB 1
$$

IAZ055>058-069>071-079>083-090>094-230800-
   SOUTHWEST IOWA

CITY           SKY/WX    TMP DP  RH WIND       PRES   REMARKS
ATLANTIC *     MOCLDY    70  70 100 SW5       29.93R FOG
AUDUBON *      CLEAR     66  64  94 CALM      29.93S FOG
CLARINDA *     CLOUDY    75  75 100 CALM      29.94S FOG
COUNCIL BLFS * PTCLDY    73  73 100 W3        29.93S
CRESTON *      CLOUDY    73  73 100 W6        29.94S
HARLAN  *      FOG       70  70 100 W3        29.96S VSB 1/2
LAMONI         CLOUDY    76  74  93 SW7       29.93R
RED OAK *      CLOUDY    73  72  94 CALM      29.93S
SHENANDOAH *   PTCLDY    73  73 100 CALM      29.93S
$$

IAZ047>049-059>061-072>074-084-230800-
   CENTRAL IOWA

CITY           SKY/WX    TMP DP  RH WIND       PRES   REMARKS
AMES           CLEAR     69  69 100 W3        29.87F
ANKENY *       CLEAR     75  73  94 CALM      29.88S
BOONE *        CLEAR     73  70  88 CALM      29.88F
CHARITON *     CLOUDY    77  73  88 W5        29.89S
DES MOINES     CLOUDY    77  73  87 W5        29.87S
GRINNELL*      CLOUDY    72  71  95 W3        29.88S FOG
KNOXVILLE *    CLOUDY    75  72  88 W5        29.87S
MARSHALLTOWN   CLEAR     71  71 100 NW5       29.86F FOG
NEWTON *       CLEAR     75  73  94 W5        29.88R
PELLA *          N/A     74  72  92 CALM      29.88S
$$

IAZ004>006-015-016-023>025-035-036-230800-
   NORTH CENTRAL IOWA

CITY           SKY/WX    TMP DP  RH WIND       PRES   REMARKS
ALGONA *       CLEAR     68  68 100 SW8       29.89F
ESTHERVILLE    CLEAR     65  65 100 W6        29.89S
FORT DODGE *   PTCLDY    70  66  88 S3        29.90F
MASON CITY     CLEAR     69  67  93 W3        29.89F
FOREST CITY *    N/A     68  68 100 CALM      29.88F FOG
WEBSTER CITY * PTCLDY    68  68 100 SW6       29.87S
IOWA FALLS *     N/A     69  68  96 CALM      29.89F FOG
$$

IAZ007>011-017>019-026>030-037>042-050>054-066-230800-
   NORTHEAST IOWA

CITY           SKY/WX    TMP DP  RH WIND       PRES   REMARKS
CEDAR RAPIDS   PTCLDY    71  71 100 NW5       29.84F
CHARLES CITY * CLEAR     70  70 100 N5        29.87F
DECORAH *      CLEAR     72  70  94 CALM      29.85F
DUBUQUE        CLEAR     73  71  93 NW7       29.84F
MONTICELLO *   CLOUDY    72  72 100 CALM      29.84S
OELWEIN *        N/A    N/A N/A N/A MISG        N/A
WATERLOO       CLEAR     71  69  93 CALM      29.84F
$$

IAZ064-065-067-068-078-230800-
   EAST CENTRAL IOWA

CITY           SKY/WX    TMP DP  RH WIND       PRES   REMARKS
DAVENPORT      CLOUDY    74  73  97 W5        29.84F
IOWA CITY      CLOUDY    77  73  87 NW6       29.85F
MT. PLEASANT * CLOUDY    75  74  97 NW5       29.85S
MUSCATINE *    MOCLDY    75  73  94 NW3       29.83S
QUAD CITIES    PTCLDY    76  73  91 W5        29.81F
$$

IAZ062-063-075>077-085>089-095>099-230800-
   SOUTHEAST IOWA

CITY           SKY/WX    TMP DP  RH WIND       PRES   REMARKS
BURLINGTON     MOCLDY    76  76 100 NW5       29.84R
FAIRFIELD *    CLOUDY    75  72  88 W5        29.86R
FORT MADISON * CLOUDY    75  75 100 W3        29.86S
KEOKUK *       CLOUDY    77  75  94 MISG      29.85R
OSKALOOSA *      N/A     74  72  93 W3        29.87S
CENTERVILLE *    N/A     75  73  94 CALM      29.91R
OTTUMWA        MOCLDY    75  74  96 W5        29.87R
$$

ABBREVIATIONS USED IN REMARKS
   TC - TEMPERATURES IN CELSIUS
  WCI - WIND CHILL INDEX
   HX - HEAT INDEX
  VSB - VISIBILITY
$$





USA.gov is the U.S. government's official web portal to all federal, state and local government web resources and services.